When you browse on this site, cookies collect data to enhance your experience and personalize the content and advertising you see.
Visit our Privacy Policy to learn more. By continuing to use the site, you agree to this use of cookies and data.
  • In United Kingdom
  • List of Countries
  • For 7 days
  • Water Temperature
  • Weather Map
  • Weather Widgets
  • user-avatar
    Login

    Hourly Weather Calinesti

    Today, 21 October, Monday

    Time Temperature Precipitation Wind Pressure Humidity
    00:00 +17°C° 0 mm 2 mps 744 mmHg 63%
    01:00 +16°C° 0 mm 2 mps 744 mmHg 63%
    02:00 +16°C° 0 mm 2 mps 744 mmHg 65%
    03:00 +16°C° 0 mm 2 mps 744 mmHg 65%
    04:00 +16°C° 0 mm 1 mps 744 mmHg 65%
    05:00 +15°C° 0 mm 1 mps 744 mmHg 66%
    06:00 +16°C° 0 mm 1 mps 744 mmHg 64%
    07:00 +16°C° 0 mm 1 mps 744 mmHg 63%
    08:00 +18°C° 0 mm 1 mps 744 mmHg 62%
    09:00 +20°C° 0 mm 1 mps 744 mmHg 56%
    10:00 +22°C° 0 mm 1 mps 744 mmHg 49%
    11:00 +24°C° 0 mm 1 mps 745 mmHg 43%
    12:00 +24°C° 0 mm 1 mps 744 mmHg 41%
    13:00 +25°C° 0 mm 1 mps 744 mmHg 39%
    14:00 +26°C° 0 mm 1 mps 744 mmHg 36%
    15:00 +25°C° 0 mm 1 mps 744 mmHg 40%
    16:00 +24°C° 0 mm 1 mps 744 mmHg 43%
    17:00 +23°C° 0 mm 1 mps 744 mmHg 46%
    18:00 +22°C° 0 mm 1 mps 744 mmHg 50%
    19:00 +21°C° 0 mm 1 mps 744 mmHg 53%
    20:00 +18°C° 0 mm 0 mps 744 mmHg 56%
    21:00 +19°C° 0 mm 1 mps 744 mmHg 58%
    22:00 +19°C° 0 mm 1 mps 744 mmHg 60%
    23:00 +18°C° 0 mm 1 mps 744 mmHg 61%

    Tomorrow, 22 October, Tuesday

    Time Temperature Precipitation Wind Pressure Humidity
    00:00 +18°C° 0 mm 1 mps 744 mmHg 62%
    01:00 +18°C° 0 mm 1 mps 744 mmHg 63%
    02:00 +16°C° 0 mm 1 mps 744 mmHg 64%
    03:00 +16°C° 0 mm 1 mps 744 mmHg 64%
    04:00 +16°C° 0 mm 1 mps 744 mmHg 64%
    05:00 +15°C° 0 mm 1 mps 744 mmHg 64%
    06:00 +16°C° 0 mm 1 mps 745 mmHg 63%
    07:00 +16°C° 0 mm 1 mps 745 mmHg 61%
    08:00 +16°C° 0 mm 1 mps 745 mmHg 60%
    09:00 +19°C° 0 mm 1 mps 745 mmHg 55%
    10:00 +21°C° 0 mm 1 mps 745 mmHg 51%
    11:00 +23°C° 0 mm 2 mps 745 mmHg 46%
    12:00 +24°C° 0 mm 2 mps 745 mmHg 45%
    13:00 +25°C° 0 mm 1 mps 745 mmHg 43%
    14:00 +25°C° 0 mm 1 mps 745 mmHg 41%
    15:00 +24°C° 0 mm 1 mps 745 mmHg 44%
    16:00 +23°C° 0 mm 1 mps 745 mmHg 47%
    17:00 +22°C° 0 mm 1 mps 744 mmHg 50%
    18:00 +21°C° 0 mm 1 mps 745 mmHg 53%
    19:00 +20°C° 0 mm 1 mps 745 mmHg 56%
    20:00 +19°C° 0 mm 1 mps 745 mmHg 59%
    21:00 +19°C° 0 mm 1 mps 745 mmHg 61%
    22:00 +18°C° 0 mm 1 mps 745 mmHg 62%
    23:00 +18°C° 0 mm 1 mps 745 mmHg 63%

    Day after tomorrow, 23 October, Wednesday

    Time Temperature Precipitation Wind Pressure Humidity
    00:00 +16°C° 0 mm 1 mps 745 mmHg 65%
    01:00 +16°C° 0 mm 1 mps 745 mmHg 66%
    02:00 +15°C° 0 mm 1 mps 745 mmHg 67%
    03:00 +15°C° 0 mm 1 mps 745 mmHg 68%
    04:00 +15°C° 0 mm 1 mps 745 mmHg 69%
    05:00 +15°C° 0 mm 1 mps 744 mmHg 69%
    06:00 +15°C° 0 mm 1 mps 744 mmHg 68%
    07:00 +16°C° 0 mm 1 mps 744 mmHg 66%
    08:00 +16°C° 0 mm 1 mps 744 mmHg 65%
    09:00 +19°C° 0 mm 1 mps 745 mmHg 58%
    10:00 +21°C° 0 mm 1 mps 745 mmHg 51%
    11:00 +23°C° 0 mm 1 mps 745 mmHg 45%
    12:00 +24°C° 0 mm 1 mps 744 mmHg 42%
    13:00 +24°C° 0 mm 1 mps 744 mmHg 39%
    14:00 +25°C° 0 mm 1 mps 744 mmHg 36%
    15:00 +24°C° 0 mm 1 mps 743 mmHg 39%
    16:00 +23°C° 0 mm 1 mps 743 mmHg 41%
    17:00 +22°C° 0 mm 1 mps 743 mmHg 43%
    18:00 +21°C° 0 mm 1 mps 743 mmHg 44%
    19:00 +20°C° 0 mm 1 mps 743 mmHg 46%
    20:00 +19°C° 0 mm 1 mps 743 mmHg 47%
    21:00 +18°C° 0 mm 1 mps 743 mmHg 50%
    22:00 +18°C° 0 mm 1 mps 743 mmHg 52%
    23:00 +16°C° 0 mm 1 mps 743 mmHg 55%

    24 October, Thursday

    Time Temperature Precipitation Wind Pressure Humidity
    00:00 +16°C° 0 mm 1 mps 743 mmHg 57%
    01:00 +16°C° 0 mm 1 mps 743 mmHg 59%
    02:00 +15°C° 0 mm 1 mps 743 mmHg 62%
    03:00 +15°C° 0 mm 1 mps 743 mmHg 63%
    04:00 +15°C° 0 mm 1 mps 743 mmHg 64%
    05:00 +14°C° 0 mm 1 mps 743 mmHg 65%
    06:00 +15°C° 0 mm 1 mps 743 mmHg 65%
    07:00 +15°C° 0 mm 1 mps 742 mmHg 64%
    08:00 +15°C° 0 mm 1 mps 742 mmHg 63%
    09:00 +18°C° 0 mm 1 mps 742 mmHg 57%
    10:00 +21°C° 0 mm 1 mps 742 mmHg 50%
    11:00 +23°C° 0 mm 1 mps 742 mmHg 43%
    12:00 +23°C° 0 mm 1 mps 742 mmHg 41%
    13:00 +24°C° 0 mm 1 mps 742 mmHg 38%
    14:00 +25°C° 0 mm 1 mps 742 mmHg 36%
    15:00 +24°C° 0 mm 1 mps 741 mmHg 39%
    16:00 +23°C° 0 mm 1 mps 741 mmHg 41%
    17:00 +21°C° 0 mm 1 mps 741 mmHg 44%
    18:00 +20°C° 0 mm 1 mps 741 mmHg 47%
    19:00 +19°C° 0 mm 1 mps 741 mmHg 49%
    20:00 +18°C° 0 mm 1 mps 741 mmHg 52%
    21:00 +18°C° 0 mm 1 mps 741 mmHg 54%
    22:00 +16°C° 0 mm 2 mps 741 mmHg 56%
    23:00 +16°C° 0 mm 2 mps 741 mmHg 58%

    25 October, Friday

    Time Temperature Precipitation Wind Pressure Humidity
    00:00 +15°C° 0 mm 2 mps 741 mmHg 60%
    01:00 +15°C° 0 mm 2 mps 741 mmHg 62%
    02:00 +15°C° 0 mm 2 mps 741 mmHg 63%
    03:00 +14°C° 0 mm 2 mps 741 mmHg 64%
    04:00 +14°C° 0 mm 1 mps 741 mmHg 64%
    05:00 +14°C° 0 mm 1 mps 741 mmHg 65%
    06:00 +14°C° 0 mm 1 mps 741 mmHg 64%
    07:00 +14°C° 0 mm 1 mps 741 mmHg 62%
    08:00 +15°C° 0 mm 1 mps 742 mmHg 61%
    09:00 +18°C° 0 mm 1 mps 742 mmHg 54%
    10:00 +20°C° 0 mm 1 mps 742 mmHg 48%
    11:00 +22°C° 0 mm 1 mps 742 mmHg 41%
    12:00 +23°C° 0 mm 1 mps 742 mmHg 38%
    13:00 +24°C° 0 mm 1 mps 742 mmHg 36%
    14:00 +24°C° 0 mm 1 mps 742 mmHg 33%
    15:00 +23°C° 0 mm 1 mps 742 mmHg 36%
    16:00 +22°C° 0 mm 1 mps 741 mmHg 39%
    17:00 +21°C° 0 mm 1 mps 741 mmHg 42%
    18:00 +20°C° 0 mm 1 mps 742 mmHg 45%
    19:00 +17°C° 0 mm 0 mps 742 mmHg 48%
    20:00 +16°C° 0 mm 0 mps 742 mmHg 50%
    21:00 +16°C° 0 mm 0 mps 742 mmHg 52%
    22:00 +16°C° 0 mm 1 mps 742 mmHg 53%
    23:00 +16°C° 0 mm 1 mps 743 mmHg 55%

    26 October, Saturday

    Time Temperature Precipitation Wind Pressure Humidity
    00:00 +15°C° 0 mm 1 mps 743 mmHg 56%
    01:00 +15°C° 0 mm 1 mps 743 mmHg 57%
    02:00 +15°C° 0 mm 1 mps 743 mmHg 58%
    03:00 +14°C° 0 mm 1 mps 743 mmHg 59%
    04:00 +14°C° 0 mm 1 mps 743 mmHg 59%
    05:00 +14°C° 0 mm 1 mps 743 mmHg 60%
    06:00 +14°C° 0 mm 1 mps 743 mmHg 59%
    07:00 +14°C° 0 mm 1 mps 743 mmHg 59%
    08:00 +15°C° 0 mm 1 mps 743 mmHg 58%
    09:00 +16°C° 0 mm 1 mps 744 mmHg 53%
    10:00 +19°C° 0 mm 1 mps 744 mmHg 48%
    11:00 +20°C° 0 mm 2 mps 744 mmHg 43%
    12:00 +21°C° 0 mm 2 mps 744 mmHg 42%
    13:00 +21°C° 0 mm 2 mps 743 mmHg 40%
    14:00 +23°C° 0 mm 2 mps 743 mmHg 39%
    15:00 +21°C° 0 mm 2 mps 743 mmHg 42%
    16:00 +20°C° 0 mm 2 mps 742 mmHg 45%
    17:00 +19°C° 0 mm 2 mps 742 mmHg 48%
    18:00 +18°C° 0 mm 2 mps 742 mmHg 51%
    19:00 +17°C° 0 mm 2 mps 743 mmHg 54%
    20:00 +16°C° 0 mm 2 mps 743 mmHg 57%
    21:00 +16°C° 0 mm 2 mps 743 mmHg 59%
    22:00 +15°C° 0 mm 2 mps 743 mmHg 61%
    23:00 +15°C° 0 mm 2 mps 743 mmHg 64%

    27 October, Sunday

    Time Temperature Precipitation Wind Pressure Humidity
    00:00 +14°C° 0 mm 2 mps 743 mmHg 65%
    01:00 +14°C° 0 mm 2 mps 743 mmHg 66%
    02:00 +14°C° 0 mm 2 mps 743 mmHg 67%
    03:00 +14°C° 0 mm 2 mps 743 mmHg 68%
    04:00 +13°C° 0 mm 2 mps 743 mmHg 69%
    05:00 +13°C° 0 mm 1 mps 743 mmHg 70%
    06:00 +13°C° 0 mm 1 mps 743 mmHg 68%
    07:00 +14°C° 0 mm 1 mps 743 mmHg 67%
    08:00 +14°C° 0 mm 1 mps 743 mmHg 66%
    09:00 +16°C° 0 mm 1 mps 743 mmHg 60%
    10:00 +18°C° 0 mm 1 mps 743 mmHg 53%
    11:00 +20°C° 0 mm 1 mps 743 mmHg 47%
    12:00 +21°C° 0 mm 1 mps 743 mmHg 45%
    13:00 +21°C° 0 mm 2 mps 742 mmHg 43%
    14:00 +21°C° 0 mm 2 mps 742 mmHg 41%
    15:00 +20°C° 0 mm 2 mps 742 mmHg 44%
    16:00 +20°C° 0 mm 2 mps 741 mmHg 46%
    17:00 +19°C° 0 mm 2 mps 741 mmHg 49%
    18:00 +18°C° 0 mm 2 mps 741 mmHg 52%
    19:00 +17°C° 0 mm 2 mps 741 mmHg 55%
    20:00 +16°C° 0 mm 1 mps 742 mmHg 58%
    21:00 +15°C° 0 mm 2 mps 742 mmHg 59%
    22:00 +15°C° 0 mm 2 mps 742 mmHg 61%
    23:00 +15°C° 0 mm 2 mps 742 mmHg 62%
    Show more